Terminal Aerodrome Forecast
Issued by NWS

Home | Current Version | Previous Version | Text Only | Print | Product List | Glossary On
Versions: 1 2 3 4 5 6 7 8 9 10 11 12 13 14 15 16 17
000
FTUS45 KRIW 270500
TAFCOD
TAF
KCOD 270539Z 2706/2806 04007KT 2SM BR VV004 WS018/26035KT
     FM270900 25015G23KT P6SM SCT140 BKN200 WS018/27045KT
     FM272200 25018G30KT P6SM SCT140 BKN200
      AMD LTD TO CLD VIS AND WIND=

USA.gov is the U.S. government's official web portal to all federal, state and local government web resources and services.